• In Hungary
  • List of Countries
  • For 7 days
  • Water Temperature
  • Satellite Maps
  • Weather Map
  • News
  • Weather Widgets
  • user-avatar
    Login

    Hourly Weather Santa Cruz de la Sierra

    Today, 21 February, Wednesday

    Time Temperature Precipitation Wind Pressure Humidity
    00:00 +26°C° 0.1 mm 2 mps 722 mmHg 86%
    01:00 +25°C° 0.1 mm 2 mps 722 mmHg 87%
    02:00 +25°C° 0 mm 2 mps 722 mmHg 90%
    03:00 +24°C° 0.2 mm 1 mps 722 mmHg 91%
    04:00 +24°C° 0.2 mm 1 mps 722 mmHg 92%
    05:00 +24°C° 0.2 mm 1 mps 722 mmHg 94%
    06:00 +25°C° 0.4 mm 1 mps 723 mmHg 91%
    07:00 +25°C° 0.4 mm 1 mps 723 mmHg 89%
    08:00 +26°C° 0 mm 1 mps 723 mmHg 86%
    09:00 +27°C° 1.8 mm 1 mps 723 mmHg 85%
    10:00 +28°C° 1.8 mm 1 mps 723 mmHg 83%
    11:00 +29°C° 1.8 mm 2 mps 723 mmHg 81%
    12:00 +29°C° 1.6 mm 2 mps 723 mmHg 81%
    13:00 +29°C° 1.6 mm 2 mps 723 mmHg 81%
    14:00 +29°C° 1.6 mm 2 mps 722 mmHg 81%
    15:00 +29°C° 1.3 mm 2 mps 722 mmHg 83%
    16:00 +28°C° 1.3 mm 2 mps 722 mmHg 85%
    17:00 +28°C° 1.3 mm 2 mps 722 mmHg 87%
    18:00 +27°C° 0.4 mm 2 mps 722 mmHg 88%
    19:00 +26°C° 0.4 mm 2 mps 722 mmHg 90%
    20:00 +25°C° 0.4 mm 2 mps 722 mmHg 91%
    21:00 +25°C° 0.2 mm 2 mps 723 mmHg 89%
    22:00 +25°C° 0.2 mm 2 mps 724 mmHg 87%
    23:00 +25°C° 0.2 mm 2 mps 724 mmHg 84%

    Tomorrow, 22 February, Thursday

    Time Temperature Precipitation Wind Pressure Humidity
    00:00 +24°C° 0.8 mm 2 mps 724 mmHg 87%
    01:00 +24°C° 0.8 mm 2 mps 724 mmHg 89%
    02:00 +23°C° 0.8 mm 2 mps 724 mmHg 91%
    03:00 +23°C° 0.2 mm 2 mps 724 mmHg 90%
    04:00 +23°C° 0.2 mm 2 mps 724 mmHg 88%
    05:00 +23°C° 0.2 mm 2 mps 724 mmHg 86%
    06:00 +24°C° 0 mm 2 mps 724 mmHg 82%
    07:00 +25°C° 0 mm 2 mps 724 mmHg 77%
    08:00 +26°C° 0 mm 3 mps 725 mmHg 72%
    09:00 +28°C° 0 mm 3 mps 725 mmHg 63%
    10:00 +30°C° 0 mm 4 mps 725 mmHg 53%
    11:00 +33°C° 0 mm 4 mps 725 mmHg 43%
    12:00 +33°C° 0 mm 4 mps 725 mmHg 41%
    13:00 +34°C° 0 mm 4 mps 724 mmHg 39%
    14:00 +35°C° 0 mm 3 mps 724 mmHg 36%
    15:00 +35°C° 0 mm 3 mps 723 mmHg 38%
    16:00 +35°C° 0 mm 2 mps 722 mmHg 40%
    17:00 +35°C° 0 mm 2 mps 722 mmHg 42%
    18:00 +32°C° 0 mm 2 mps 722 mmHg 47%
    19:00 +29°C° 0 mm 1 mps 722 mmHg 52%
    20:00 +27°C° 0 mm 1 mps 723 mmHg 57%
    21:00 +27°C° 0 mm 1 mps 723 mmHg 58%
    22:00 +26°C° 0 mm 1 mps 723 mmHg 58%
    23:00 +26°C° 0 mm 1 mps 723 mmHg 59%

    Day after tomorrow, 23 February, Friday

    Time Temperature Precipitation Wind Pressure Humidity
    00:00 +25°C° 0 mm 1 mps 723 mmHg 59%
    01:00 +25°C° 0 mm 1 mps 723 mmHg 59%
    02:00 +25°C° 0 mm 1 mps 722 mmHg 59%
    03:00 +24°C° 0 mm 1 mps 722 mmHg 60%
    04:00 +24°C° 0 mm 1 mps 722 mmHg 61%
    05:00 +24°C° 0 mm 1 mps 722 mmHg 62%
    06:00 +25°C° 0 mm 1 mps 723 mmHg 60%
    07:00 +26°C° 0 mm 2 mps 723 mmHg 59%
    08:00 +27°C° 0 mm 2 mps 724 mmHg 58%
    09:00 +29°C° 0 mm 2 mps 724 mmHg 50%
    10:00 +31°C° 0 mm 2 mps 724 mmHg 42%
    11:00 +35°C° 0 mm 2 mps 724 mmHg 34%
    12:00 +36°C° 0 mm 2 mps 723 mmHg 31%
    13:00 +37°C° 0 mm 2 mps 722 mmHg 29%
    14:00 +37°C° 0 mm 2 mps 721 mmHg 27%
    15:00 +37°C° 0 mm 2 mps 721 mmHg 29%
    16:00 +37°C° 0 mm 2 mps 720 mmHg 31%
    17:00 +35°C° 0 mm 1 mps 720 mmHg 33%
    18:00 +33°C° 0 mm 1 mps 720 mmHg 40%
    19:00 +30°C° 0 mm 1 mps 720 mmHg 47%
    20:00 +27°C° 0 mm 1 mps 721 mmHg 53%
    21:00 +26°C° 0 mm 1 mps 721 mmHg 56%
    22:00 +26°C° 0 mm 1 mps 722 mmHg 59%
    23:00 +25°C° 0 mm 1 mps 723 mmHg 61%

    24 February, Saturday

    Time Temperature Precipitation Wind Pressure Humidity
    00:00 +25°C° 0 mm 1 mps 722 mmHg 62%
    01:00 +24°C° 0 mm 1 mps 722 mmHg 63%
    02:00 +24°C° 0 mm 1 mps 722 mmHg 64%
    03:00 +23°C° 0 mm 1 mps 722 mmHg 65%
    04:00 +23°C° 0 mm 1 mps 721 mmHg 67%
    05:00 +22°C° 0 mm 1 mps 721 mmHg 68%
    06:00 +24°C° 0 mm 1 mps 722 mmHg 64%
    07:00 +25°C° 0 mm 1 mps 723 mmHg 60%
    08:00 +27°C° 0 mm 1 mps 723 mmHg 56%
    09:00 +29°C° 0 mm 1 mps 723 mmHg 48%
    10:00 +32°C° 0 mm 1 mps 724 mmHg 41%
    11:00 +35°C° 0 mm 2 mps 724 mmHg 33%
    12:00 +36°C° 0 mm 2 mps 723 mmHg 31%
    13:00 +37°C° 0 mm 2 mps 722 mmHg 29%
    14:00 +37°C° 0 mm 3 mps 721 mmHg 27%
    15:00 +37°C° 0 mm 3 mps 721 mmHg 29%
    16:00 +36°C° 0 mm 3 mps 720 mmHg 32%
    17:00 +36°C° 0 mm 3 mps 720 mmHg 35%
    18:00 +32°C° 0 mm 2 mps 720 mmHg 42%
    19:00 +30°C° 0 mm 1 mps 721 mmHg 49%
    20:00 +27°C° 0 mm 1 mps 721 mmHg 56%
    21:00 +26°C° 0 mm 1 mps 722 mmHg 57%
    22:00 +26°C° 0 mm 1 mps 723 mmHg 58%
    23:00 +25°C° 0 mm 1 mps 723 mmHg 59%

    25 February, Sunday

    Time Temperature Precipitation Wind Pressure Humidity
    00:00 +25°C° 0 mm 1 mps 723 mmHg 60%
    01:00 +24°C° 0 mm 1 mps 723 mmHg 60%
    02:00 +24°C° 0 mm 1 mps 723 mmHg 60%
    03:00 +23°C° 0 mm 1 mps 723 mmHg 61%
    04:00 +23°C° 0 mm 1 mps 723 mmHg 61%
    05:00 +23°C° 0 mm 1 mps 723 mmHg 62%
    06:00 +24°C° 0 mm 1 mps 724 mmHg 59%
    07:00 +25°C° 0 mm 1 mps 724 mmHg 57%
    08:00 +26°C° 0 mm 1 mps 725 mmHg 54%
    09:00 +29°C° 0 mm 1 mps 725 mmHg 47%
    10:00 +31°C° 0 mm 2 mps 725 mmHg 41%
    11:00 +34°C° 0 mm 2 mps 725 mmHg 34%
    12:00 +35°C° 0 mm 2 mps 724 mmHg 31%
    13:00 +37°C° 0 mm 2 mps 723 mmHg 29%
    14:00 +38°C° 0 mm 2 mps 722 mmHg 26%
    15:00 +37°C° 0 mm 2 mps 721 mmHg 27%
    16:00 +37°C° 0 mm 2 mps 721 mmHg 29%
    17:00 +37°C° 0 mm 2 mps 720 mmHg 30%
    18:00 +34°C° 0 mm 2 mps 721 mmHg 37%
    19:00 +31°C° 0 mm 1 mps 721 mmHg 43%
    20:00 +28°C° 0 mm 1 mps 721 mmHg 50%
    21:00 +27°C° 0 mm 1 mps 722 mmHg 51%
    22:00 +27°C° 0 mm 1 mps 723 mmHg 52%
    23:00 +26°C° 0 mm 1 mps 723 mmHg 53%

    26 February, Monday

    Time Temperature Precipitation Wind Pressure Humidity
    00:00 +26°C° 0 mm 1 mps 723 mmHg 53%
    01:00 +25°C° 0 mm 1 mps 723 mmHg 53%
    02:00 +25°C° 0 mm 1 mps 723 mmHg 54%
    03:00 +25°C° 0 mm 1 mps 722 mmHg 54%
    04:00 +24°C° 0 mm 1 mps 722 mmHg 55%
    05:00 +24°C° 0 mm 1 mps 722 mmHg 56%
    06:00 +25°C° 0 mm 1 mps 723 mmHg 55%
    07:00 +26°C° 0 mm 1 mps 723 mmHg 54%
    08:00 +25°C° 0 mm 0 mps 724 mmHg 54%
    09:00 +30°C° 0 mm 1 mps 724 mmHg 49%
    10:00 +32°C° 0 mm 1 mps 724 mmHg 44%
    11:00 +35°C° 0 mm 1 mps 723 mmHg 39%
    12:00 +35°C° 0 mm 1 mps 722 mmHg 36%
    13:00 +36°C° 0 mm 1 mps 721 mmHg 34%
    14:00 +38°C° 0 mm 2 mps 720 mmHg 32%
    15:00 +37°C° 0 mm 2 mps 720 mmHg 34%
    16:00 +37°C° 0 mm 2 mps 719 mmHg 36%
    17:00 +36°C° 0 mm 2 mps 719 mmHg 37%
    18:00 +34°C° 0 mm 2 mps 719 mmHg 45%
    19:00 +31°C° 0 mm 2 mps 720 mmHg 53%
    20:00 +28°C° 0 mm 1 mps 720 mmHg 61%
    21:00 +27°C° 0.2 mm 1 mps 721 mmHg 70%
    22:00 +26°C° 0.2 mm 1 mps 721 mmHg 79%
    23:00 +25°C° 0.2 mm 1 mps 721 mmHg 87%
    Show more